Branson, MO

7:18 AM CDT on April 26, 2017 (GMT -0500)
Branson

Weather History for KBBG - July, 2013

Change the Weather History Date:

Friday, July 12, 2013

  Actual Average (KHRO) Record (KHRO)
Temperature  
Mean Temperature 76 °F -  
Max Temperature 89 °F 90 °F 109 °F (1901)
Min Temperature 64 °F 68 °F 50 °F (1898)
Cooling Degree Days 12    
Growing Degree Days 26 (Base 50)    
Moisture  
Dew Point 54 °F    
Average Humidity 54    
Maximum Humidity 83    
Minimum Humidity 22    
Precipitation  
Precipitation 0.00 in - - ()
Sea Level Pressure  
Sea Level Pressure 30.07 in    
Wind  
Wind Speed 7 mph (ESE)    
Max Wind Speed 12 mph    
Max Gust Speed 21 mph    
Visibility 10 miles    
Events      
Averages and records for this station are not official NWS values.
T = Trace of Precipitation, MM = Missing Value Source: NWS Daily Summary

Daily Weather History Graph

Daily Weather History Graph

Search for Another Location

Airport or City:

Trip Planner

Search our weather history database for the weather conditions in past years. The results will help you decide how hot, cold, wet, or windy it might be!

Date:

Astronomy

Jul. 12, 2013 Rise Set
Actual Time 6:04 AM CDT 8:32 PM CDT
Civil Twilight 5:34 AM CDT 9:02 PM CDT
Nautical Twilight 4:57 AM CDT 9:38 PM CDT
Astronomical Twilight 4:16 AM CDT 10:19 PM CDT
Moon 10:13 AM CDT (7/12) 10:52 PM CDT (7/12)
Length of Visible Light 15h 27m
Length of Day
14h 27m
Waxing Crescent, 17% of the Moon is Illuminated
Jul 12
Waxing Crescent
Jul 15
First Quarter
Jul 22
Full
Jul 29
Last Quarter
Aug 6
New

Hourly Weather History & Observations

Time (CDT) Temp. Heat Index Dew Point Humidity Pressure Visibility Wind Dir Wind Speed Gust Speed Precip Events Conditions
12:15 AM 75.2 °F - 59.0 °F 57% 30.06 in 10.0 mi East 9.2 mph - N/A   Clear
12:35 AM 75.2 °F - 59.0 °F 57% 30.06 in 10.0 mi East 9.2 mph - N/A   Clear
12:55 AM 73.4 °F - 59.0 °F 61% 30.06 in 10.0 mi East 9.2 mph - N/A   Clear
1:15 AM 73.4 °F - 59.0 °F 61% 30.06 in 10.0 mi East 6.9 mph - N/A   Clear
1:35 AM 71.6 °F - 59.0 °F 64% 30.06 in 10.0 mi ESE 5.8 mph - N/A   Clear
1:55 AM 71.6 °F - 59.0 °F 64% 30.06 in 10.0 mi East 6.9 mph - N/A   Clear
2:15 AM 71.6 °F - 59.0 °F 64% 30.07 in 10.0 mi East 5.8 mph - N/A   Clear
2:35 AM 69.8 °F - 59.0 °F 68% 30.06 in 10.0 mi East 5.8 mph - N/A   Clear
2:55 AM 69.8 °F - 59.0 °F 68% 30.07 in 10.0 mi East 4.6 mph - N/A   Clear
3:15 AM 68.0 °F - 59.0 °F 73% 30.07 in 10.0 mi ESE 3.5 mph - N/A   Clear
3:35 AM 68.0 °F - 59.0 °F 73% 30.07 in 10.0 mi ESE 4.6 mph - N/A   Clear
3:55 AM 68.0 °F - 59.0 °F 73% 30.07 in 10.0 mi ESE 8.1 mph - N/A   Clear
4:15 AM 68.0 °F - 59.0 °F 73% 30.08 in 10.0 mi ESE 3.5 mph - N/A   Clear
4:35 AM 66.2 °F - 59.0 °F 78% 30.08 in 10.0 mi ESE 4.6 mph - N/A   Clear
4:55 AM 66.2 °F - 59.0 °F 78% 30.08 in 10.0 mi East 3.5 mph - N/A   Clear
5:15 AM 66.2 °F - 59.0 °F 78% 30.08 in 10.0 mi East 4.6 mph - N/A   Clear
5:35 AM 66.2 °F - 59.0 °F 78% 30.08 in 10.0 mi ESE 4.6 mph - N/A   Clear
5:55 AM 64.4 °F - 59.0 °F 83% 30.09 in 10.0 mi ESE 3.5 mph - N/A   Clear
6:15 AM 64.4 °F - 59.0 °F 83% 30.09 in 10.0 mi ESE 5.8 mph - N/A   Clear
6:35 AM 66.2 °F - 59.0 °F 78% 30.10 in 10.0 mi ESE 4.6 mph - N/A   Clear
6:50 AM 66.2 °F - 59.0 °F 78% 30.10 in 10.0 mi ESE 5.8 mph - N/A   Clear
7:47 AM 68.0 °F - 59.0 °F 73% 30.12 in 10.0 mi ESE 9.2 mph - N/A   Clear
8:56 AM 73.4 °F - 55.4 °F 53% 30.13 in 10.0 mi ESE 11.5 mph - N/A   Clear
9:46 AM 75.2 °F - 55.4 °F 50% 30.12 in 10.0 mi ESE 11.5 mph - N/A   Clear
10:52 AM 78.8 °F - 55.4 °F 44% 30.12 in 10.0 mi ESE 9.2 mph 20.7 mph N/A   Clear
11:49 AM 82.4 °F 81.7 °F 55.4 °F 39% 30.10 in 10.0 mi ENE 6.9 mph 13.8 mph N/A   Clear
12:45 PM 84.2 °F 83.0 °F 55.4 °F 37% 30.10 in 10.0 mi East 6.9 mph 16.1 mph N/A   Clear
2:45 PM 86.0 °F 84.2 °F 53.6 °F 33% 30.07 in 10.0 mi SE 6.9 mph 18.4 mph N/A   Clear
3:47 PM 87.8 °F - 50.0 °F 27% 30.05 in 10.0 mi ESE 9.2 mph 19.6 mph N/A   Clear
4:45 PM 89.6 °F - 48.2 °F 24% 30.04 in 10.0 mi ENE 5.8 mph - N/A   Clear
5:45 PM 89.6 °F - 48.2 °F 24% 30.05 in 10.0 mi ESE 5.8 mph - N/A   Clear
6:55 PM 87.8 °F - 44.6 °F 22% 30.03 in 10.0 mi ESE 5.8 mph - N/A   Clear
7:45 PM 86.0 °F - 44.6 °F 23% 30.04 in 10.0 mi ESE 4.6 mph - N/A   Clear
8:45 PM 77.0 °F - 50.0 °F 39% 30.03 in 10.0 mi ESE 3.5 mph - N/A   Clear
8:55 PM 75.2 °F - 48.2 °F 38% 30.03 in 10.0 mi ESE 3.5 mph - N/A   Clear
9:15 PM 75.2 °F - 48.2 °F 38% 30.03 in 9.0 mi ESE 4.6 mph - N/A   Clear
9:35 PM 75.2 °F - 48.2 °F 38% 30.04 in 10.0 mi East 3.5 mph - N/A   Clear
9:55 PM 73.4 °F - 48.2 °F 41% 30.05 in 10.0 mi ESE 3.5 mph - N/A   Clear
10:15 PM 73.4 °F - 48.2 °F 41% 30.05 in 10.0 mi ESE 4.6 mph - N/A   Clear
10:35 PM 71.6 °F - 48.2 °F 43% 30.05 in 10.0 mi ESE 3.5 mph - N/A   Clear
10:55 PM 71.6 °F - 48.2 °F 43% 30.06 in 10.0 mi ESE 4.6 mph - N/A   Clear
11:15 PM 71.6 °F - 50.0 °F 46% 30.06 in 10.0 mi ESE 5.8 mph - N/A   Clear
11:35 PM 69.8 °F - 48.2 °F 46% 30.06 in 10.0 mi ESE 4.6 mph - N/A   Clear
11:55 PM 71.6 °F - 48.2 °F 43% 30.07 in 10.0 mi ESE 4.6 mph - N/A   Clear